1500656400.45,25531,24.5,74256.3,12.49,-22.53,-22.93,0,*4F
1500656401.68,25532,24.5,74256.3,12.51,-22.57,-22.73,0,*4F
1500656402.92,25533,24.5,74258.3,12.49,-23.13,-23.43,0,*44
1500656404.18,25534,24.5,74254.3,12.45,-22.97,-23.23,0,*44
1500656405.42,25535,24.5,74256.3,12.45,-22.53,-22.87,0,*42
1500656406.67,25536,24.5,74252.8,12.45,-22.37,-22.73,0,*48
1500656407.91,25537,24.5,74256.8,12.45,-22.37,-22.83,0,*46
1500656409.16,25538,24.5,74258.5,12.45,-22.41,-23.03,0,*41
1500656410.42,25539,24.5,74252.0,12.45,-22.21,-22.83,0,*4F
1500656411.67,25540,24.5,74256.3,12.45,-22.07,-22.73,0,*4A
1500656412.87,25541,24.5,74258.3,12.43,-21.93,-22.83,0,*4C
1500656414.08,25542,24.5,74258.5,12.43,-21.73,-22.57,0,*48
1500656415.3,25543,24.5,74256.3,12.43,-21.73,-22.73,0,*4F
1500656416.54,25544,24.5,74256.8,12.41,-21.77,-22.87,0,*45
1500656417.74,25545,24.5,74256.8,12.43,-21.63,-22.97,0,*42
1500656419.02,25546,24.5,74256.3,12.41,-21.33,-22.73,0,*4C
1500656420.3,25547,24.5,74256.8,12.41,-21.03,-22.77,0,*4A
1500656421.56,25548,24.5,74256.5,12.41,-20.89,-22.77,0,*46
1500656422.81,25549,24.5,74256.8,12.41,-20.69,-22.73,0,*4D
1500656424.09,25550,24.5,74256.8,12.41,-20.53,-22.73,0,*4C
1500656425.32,25551,24.5,74260.5,12.41,-20.29,-22.57,0,*46
1500656426.54,25552,24.5,74260.3,12.41,-20.29,-22.57,0,*45
1500656427.78,25553,24.5,74258.3,12.41,-20.43,-22.87,0,*45
1500656429.01,25554,24.5,74258.0,12.41,-20.39,-22.93,0,*4A
1500656430.23,25555,24.5,74260.0,12.39,-20.43,-22.97,0,*4D
1500656431.46,25556,24.5,74256.8,12.39,-20.49,-23.09,0,*42
1500656432.69,25557,24.5,74260.5,12.37,-20.25,-22.97,0,*41
1500656433.89,25558,24.5,74256.3,12.39,-19.99,-22.63,0,*46
1500656435.13,25559,24.5,74254.5,12.37,-19.95,-22.53,0,*46
1500656436.34,25560,24.5,74258.8,12.39,-19.99,-22.63,0,*4D
1500656437.57,25561,24.5,74258.5,12.37,-19.99,-22.53,0,*41
1500656438.78,25562,24.5,74256.3,12.39,-19.99,-22.53,0,*4C
1500656440.0,25563,24.5,74258.8,12.39,-20.35,-22.97,0,*49
1500656441.24,25564,24.5,74256.5,12.37,-20.59,-23.09,0,*4C
1500656442.48,25565,24.5,74258.8,12.39,-20.43,-22.77,0,*40
1500656443.71,25566,24.5,74256.3,12.37,-19.99,-22.27,0,*45
1500656444.98,25567,24.5,74258.5,12.37,-19.81,-21.87,0,*44
1500656446.21,25568,24.5,74258.5,12.39,-19.95,-21.97,0,*41
1500656447.46,25569,24.5,74258.5,12.37,-20.09,-22.17,0,*4A
1500656448.69,25570,24.5,74258.3,12.39,-20.15,-22.11,0,*47
1500656449.94,25571,24.5,74256.5,12.37,-20.15,-22.11,0,*48
1500656451.17,25572,24.5,74256.8,12.39,-19.99,-21.87,0,*47
1500656452.43,25573,24.5,74256.3,12.37,-20.43,-22.31,0,*4B
1500656453.72,25574,24.5,74256.8,12.37,-20.49,-22.17,0,*42
1500656454.96,25575,24.5,74256.5,12.37,-20.09,-21.97,0,*4C
1500656456.21,25576,24.5,74258.0,12.37,-20.09,-21.97,0,*4F
1500656457.43,25577,24.5,74256.5,12.37,-20.25,-22.03,0,*4E
1500656458.69,25578,24.5,74256.5,12.37,-19.99,-21.97,0,*42
1500656459.89,25579,24.5,74256.3,12.39,-19.71,-21.73,0,*41
1500656461.17,25580,24.5,74258.8,12.37,-19.57,-21.57,0,*4B
1500656462.44,25581,24.5,74258.5,12.37,-19.41,-21.57,0,*4D
1500656463.71,25582,24.5,74260.3,12.37,-19.37,-21.67,0,*4C
1500656464.95,25583,24.5,74262.3,12.37,-19.41,-21.73,0,*49
1500656466.25,25584,24.5,74260.3,12.37,-19.27,-21.87,0,*45
1500656467.51,25585,24.5,74262.8,12.37,-19.17,-21.83,0,*43
1500656468.77,25586,24.5,74258.3,12.37,-18.73,-21.87,0,*47
1500656470.02,25587,24.5,74260.5,12.39,-18.59,-21.83,0,*44
1500656471.3,25588,24.5,74258.5,12.37,-18.31,-21.83,0,*4B
1500656472.59,25589,24.5,74260.3,12.41,-18.31,-21.97,0,*4E
1500656473.82,25590,24.5,74260.5,12.39,-18.11,-22.17,0,*40
1500656475.03,25591,24.5,74256.5,12.39,-17.73,-22.03,0,*4F
1500656476.29,25592,24.5,74260.8,12.37,-17.35,-21.87,0,*4F
1500656477.54,25593,24.5,74262.3,12.39,-17.07,-21.97,0,*40
1500656478.77,25594,24.5,74258.8,12.39,-16.55,-21.83,0,*44
1500656480.0,25595,24.5,74260.5,12.37,-16.03,-21.73,0,*47
1500656481.26,25596,24.5,74260.3,12.37,-15.53,-21.67,0,*47
1500656482.54,25597,24.56,74260.3,12.37,-14.79,-21.67,0,*4F
1500656483.77,25598,24.5,74256.3,12.41,-14.37,-21.93,0,*40
1500656485.03,25599,24.5,74258.8,12.37,-13.65,-21.87,0,*45
1500656486.29,25600,24.5,74260.0,12.37,-13.07,-21.87,0,*42
1500656487.54,25601,24.5,74260.5,12.37,-12.57,-22.03,0,*48
1500656488.79,25602,24.5,74260.3,12.39,-11.63,-21.57,0,*43
1500656490.02,25603,24.5,74252.8,12.37,-10.89,-21.43,0,*4C
1500656491.25,25604,24.5,74260.0,12.39,-10.35,-21.53,0,*43
1500656492.47,25605,24.5,74258.5,12.39,-9.67,-21.53,0,*7D
1500656493.73,25606,24.5,74262.0,12.37,-8.85,-21.27,0,*7E
1500656494.96,25607,24.5,74256.5,12.37,-8.17,-21.17,0,*77
1500656496.19,25608,24.5,74256.8,12.39,-7.57,-21.09,0,*72
1500656497.44,25609,24.56,74262.0,12.41,-7.11,-20.99,0,*76
1500656498.67,25610,24.56,74262.3,12.41,-6.43,-20.69,0,*77
1500656499.9,25611,24.5,74258.8,12.37,-6.05,-20.43,0,*7D
1500656501.14,25612,24.56,74262.0,12.37,-5.73,-20.29,0,*70
1500656502.34,25613,24.5,74260.0,12.39,-5.39,-19.99,0,*70
1500656503.62,25614,24.5,74258.5,12.37,-5.07,-19.85,0,*79
1500656504.84,25615,24.56,74262.8,12.39,-4.29,-19.23,0,*77
1500656506.06,25616,24.5,74262.0,12.37,-4.37,-19.51,0,*70
1500656507.28,25617,24.5,74258.0,12.37,-4.13,-19.37,0,*77
1500656508.48,25618,24.5,74256.8,12.39,-4.13,-19.37,0,*76
1500656509.73,25619,24.56,74262.3,12.37,-3.63,-18.73,0,*78
1500656510.99,25620,24.5,74256.3,12.37,-3.59,-18.65,0,*7C
1500656512.23,25621,24.56,74258.0,12.37,-3.71,-18.65,0,*77
1500656513.46,25622,24.56,74256.0,12.37,-3.95,-18.73,0,*79
1500656514.69,25623,24.56,74258.3,12.37,-4.13,-18.65,0,*76
1500656515.93,25624,24.5,74256.5,12.37,-4.13,-18.59,0,*7E
1500656517.18,25625,24.56,74256.5,12.37,-4.25,-18.35,0,*70
1500656518.43,25626,24.56,74256.5,12.37,-4.41,-18.35,0,*71
1500656519.68,25627,24.5,74258.3,12.37,-4.49,-18.31,0,*7C
1500656520.89,25628,24.5,74258.0,12.37,-4.49,-18.17,0,*77
1500656522.17,25629,24.56,74260.5,12.37,-4.73,-18.31,0,*7B
1500656523.41,25630,24.56,74256.5,12.37,-4.73,-18.11,0,*71
1500656524.64,25631,24.5,74256.5,12.39,-4.65,-18.01,0,*78
1500656525.88,25632,24.56,74258.5,12.37,-5.03,-18.25,0,*72
1500656527.16,25633,24.56,74258.0,12.37,-5.31,-18.35,0,*73
1500656528.41,25634,24.56,74258.5,12.37,-5.51,-18.35,0,*72
1500656529.65,25635,24.56,74260.0,12.37,-5.73,-18.49,0,*78
1500656530.92,25636,24.56,74258.5,12.37,-5.85,-18.59,0,*73
1500656532.17,25637,24.5,74258.8,12.37,-6.23,-18.73,0,*75
1500656533.42,25638,24.56,74260.3,12.37,-6.85,-19.27,0,*76
1500656534.65,25639,24.56,74262.5,12.37,-7.15,-19.37,0,*7E
1500656535.9,25640,24.56,74258.3,12.37,-7.35,-19.37,0,*72
1500656537.14,25641,24.56,74260.0,12.37,-7.77,-19.71,0,*77
1500656538.34,25642,24.5,74256.5,12.35,-8.21,-19.91,0,*74
1500656539.54,25643,24.56,74258.8,12.35,-8.41,-19.91,0,*73
1500656540.77,25644,24.5,74256.5,12.35,-8.41,-19.85,0,*71
1500656541.97,25645,24.5,74254.3,12.35,-8.75,-19.91,0,*72
1500656543.2,25646,24.56,74256.5,12.35,-9.05,-19.85,0,*72
1500656544.48,25647,24.56,74258.0,12.33,-9.61,-20.53,0,*76
1500656545.72,25648,24.56,74258.3,12.37,-10.15,-20.89,0,*41
1500656546.95,25649,24.56,74260.3,12.35,-10.31,-20.79,0,*4B
1500656548.2,25650,24.56,74260.5,12.33,-10.23,-20.35,0,*4E
1500656549.46,25651,24.56,74256.3,12.35,-10.41,-20.53,0,*4D
1500656550.76,25652,24.56,74256.5,12.33,-11.29,-21.27,0,*45
1500656552.04,25653,24.56,74256.0,12.33,-12.15,-21.83,0,*46
1500656553.3,25654,24.56,74258.3,12.33,-12.25,-21.67,0,*48
1500656554.56,25655,24.56,74258.8,12.33,-12.65,-22.07,0,*48
1500656555.83,25656,24.56,74262.5,12.33,-13.23,-22.47,0,*4C
1500656557.03,25657,24.56,74256.3,12.31,-13.51,-22.41,0,*4C
1500656558.26,25658,24.56,74256.8,12.31,-13.43,-22.17,0,*43
1500656559.49,25659,24.56,74258.8,12.31,-13.23,-21.83,0,*4A
1500656560.75,25660,24.56,74256.0,12.29,-13.47,-21.87,0,*4F
1500656562.03,25661,24.56,74258.5,12.29,-13.79,-21.97,0,*42
1500656563.23,25662,24.56,74262.5,12.31,-14.11,-22.07,0,*4B
1500656564.49,25663,24.56,74260.0,12.31,-14.01,-21.83,0,*44
1500656565.69,25664,24.56,74258.5,12.31,-14.69,-22.27,0,*40
1500656566.92,25665,24.56,74258.8,12.29,-15.07,-22.63,0,*41
1500656568.19,25666,24.56,74260.0,12.29,-15.21,-22.31,0,*41
1500656569.42,25667,24.56,74260.0,12.31,-15.75,-22.73,0,*4E
1500656570.67,25668,24.56,74262.3,12.29,-16.23,-22.97,0,*42
1500656571.94,25669,24.56,74256.5,12.27,-16.69,-23.23,0,*4D
1500656573.17,25670,24.56,74258.3,12.27,-16.69,-23.13,0,*46
1500656574.41,25671,24.56,74258.5,12.27,-16.55,-22.77,0,*4B
1500656575.65,25672,24.56,74260.0,12.23,-17.41,-23.43,0,*4E
1500656576.85,25673,24.56,74262.8,12.27,-17.83,-23.59,0,*4E
1500656578.08,25674,24.56,74258.8,12.23,-17.87,-23.53,0,*43
1500656579.33,25675,24.56,74260.5,12.21,-18.25,-23.85,0,*4C
1500656580.58,25676,24.56,74258.3,12.21,-18.11,-23.49,0,*48
1500656581.81,25677,24.56,74260.0,12.19,-18.21,-23.33,0,*4C
1500656583.04,25678,24.56,74256.8,12.19,-17.97,-22.87,0,*4F
1500656584.3,25679,24.56,74256.3,12.19,-17.97,-22.77,0,*41
1500656585.51,25680,24.56,74260.8,12.19,-18.21,-22.87,0,*4A
1500656586.76,25681,24.56,74258.3,12.21,-18.21,-22.73,0,*4B
1500656588.02,25682,24.56,74260.0,12.19,-18.35,-22.77,0,*42
1500656589.23,25683,24.56,74258.3,12.19,-18.69,-22.93,0,*40
1500656590.43,25684,24.56,74256.8,12.19,-18.73,-22.87,0,*49
1500656591.66,25685,24.56,74258.3,12.21,-18.69,-22.87,0,*48
1500656592.87,25686,24.56,74262.0,12.19,-18.83,-22.87,0,*44
1500656594.12,25687,24.56,74256.5,12.19,-18.89,-22.77,0,*40
1500656595.37,25688,24.56,74260.0,12.19,-18.89,-22.73,0,*4B
1500656596.61,25689,24.56,74258.8,12.19,-19.31,-22.93,0,*46
1500656597.87,25690,24.56,74256.5,12.17,-19.31,-22.93,0,*40
1500656599.11,25691,24.56,74258.5,12.17,-19.51,-23.09,0,*45
1500656600.37,25692,24.56,74258.3,12.17,-19.57,-23.09,0,*40
1500656601.6,25693,24.56,74256.5,12.19,-19.75,-23.19,0,*4E
1500656602.86,25694,24.56,74258.5,12.15,-19.85,-23.03,0,*41
1500656604.11,25695,24.56,74256.3,12.17,-19.85,-22.97,0,*4E
1500656605.34,25696,24.56,74256.0,12.15,-19.99,-23.03,0,*4E
1500656606.6,25697,24.56,74256.0,12.17,-19.85,-22.93,0,*48
1500656607.83,25698,24.56,74256.0,12.17,-20.25,-23.09,0,*45
1500656609.03,25699,24.56,74256.8,12.15,-20.69,-23.59,0,*4B
1500656610.25,25700,24.56,74258.0,12.15,-20.83,-23.79,0,*4C
1500656611.48,25701,24.56,74256.5,12.15,-21.13,-23.95,0,*47
1500656612.71,25702,24.56,74260.0,12.15,-21.13,-23.85,0,*45
1500656613.93,25703,24.56,74258.5,12.15,-21.39,-23.95,0,*4D
1500656615.18,25704,24.56,74258.5,12.13,-21.67,-24.31,0,*4E
1500656616.39,25705,24.56,74258.0,12.11,-21.63,-24.05,0,*4E
1500656617.62,25706,24.56,74256.0,12.11,-22.21,-24.61,0,*4A
1500656618.85,25707,24.56,74254.8,12.11,-22.37,-24.71,0,*4D
1500656620.13,25708,24.56,74258.3,12.09,-22.31,-24.71,0,*4D
1500656621.33,25709,24.56,74262.0,12.07,-22.63,-24.77,0,*43
1500656622.57,25710,24.56,74260.0,12.07,-22.77,-25.09,0,*46
1500656623.8,25711,24.56,74262.8,12.07,-22.77,-24.93,0,*45
1500656625.06,25712,24.56,74258.3,12.05,-22.77,-24.77,0,*4E
1500656626.29,25713,24.56,74258.5,12.01,-22.53,-24.51,0,*49
1500656627.53,25714,24.56,74260.0,12.01,-22.57,-24.61,0,*49
1500656628.78,25715,24.56,74256.8,12.01,-22.41,-24.15,0,*4C
1500656630.04,25716,24.56,74262.0,12.01,-22.57,-24.21,0,*4F
1500656631.28,25717,24.56,74258.3,12.01,-22.37,-24.05,0,*4E
1500656632.53,25718,24.56,74258.5,12.01,-22.21,-23.89,0,*45
1500656633.79,25719,24.56,74258.0,12.01,-22.53,-23.99,0,*40
1500656635.0,25720,24.56,74258.5,11.99,-23.09,-24.51,0,*45
1500656636.27,25721,24.56,74258.0,11.97,-23.29,-24.83,0,*47
1500656637.52,25722,24.56,74262.0,11.97,-23.39,-24.67,0,*4F
1500656638.78,25723,24.56,74256.0,11.97,-23.09,-24.25,0,*4B
1500656640.03,25724,24.56,74256.3,11.97,-22.93,-24.11,0,*49
1500656641.26,25725,24.56,74256.5,11.97,-22.93,-24.05,0,*4D
1500656642.5,25726,24.56,74260.5,11.97,-22.87,-23.95,0,*45
1500656643.73,25727,24.56,74256.0,11.97,-22.93,-24.05,0,*4F
1500656645.0,25728,24.56,74256.5,11.97,-23.29,-24.11,0,*45
1500656646.28,25729,24.56,74256.5,11.97,-23.29,-24.11,0,*44
1500656647.56,25730,24.56,74258.8,11.95,-23.65,-24.41,0,*43
1500656648.83,25731,24.56,74258.5,11.95,-23.65,-24.41,0,*42
1500656650.09,25732,24.56,74256.8,11.95,-23.43,-24.15,0,*44
1500656651.36,25733,24.56,74258.5,11.95,-23.49,-24.11,0,*4B
1500656652.59,25734,24.56,74254.3,11.93,-23.43,-23.99,0,*47
1500656653.83,25735,24.56,74256.3,11.93,-23.49,-23.99,0,*4C
1500656655.06,25736,24.56,74258.8,11.93,-23.95,-24.31,0,*4B
1500656656.31,25737,24.56,74258.3,11.91,-23.95,-24.35,0,*4C
1500656657.59,25738,24.56,74262.8,11.91,-23.85,-24.21,0,*47
1500656658.84,25739,24.56,74260.3,11.91,-23.79,-24.21,0,*45
1500656660.08,25740,24.56,74256.5,11.89,-23.85,-24.11,0,*42
1500656661.31,25741,24.56,74258.5,11.91,-23.79,-24.05,0,*4C
1500656662.54,25742,24.56,74258.8,11.89,-23.89,-24.25,0,*4B
1500656663.76,25743,24.56,74256.8,11.89,-23.89,-24.25,0,*4A
1500656664.99,25744,24.56,74252.8,11.89,-23.89,-24.21,0,*49
1500656666.22,25745,24.56,74256.5,11.89,-23.75,-24.11,0,*48
1500656667.47,25746,24.56,74256.3,11.89,-23.85,-24.25,0,*43
1500656668.71,25747,24.56,74258.3,11.87,-23.39,-23.53,0,*4D
1500656669.94,25748,24.56,74258.0,11.89,-23.23,-23.39,0,*4B
1500656671.19,25749,24.56,74256.0,11.87,-23.13,-23.53,0,*4B
1500656672.45,25750,24.56,74258.0,11.87,-23.43,-23.85,0,*4D
1500656673.71,25751,24.56,74256.8,11.87,-23.75,-24.21,0,*40
1500656674.94,25752,24.56,74256.8,11.85,-24.15,-24.47,0,*40
1500656676.17,25753,24.56,74258.0,11.85,-23.95,-24.31,0,*4F
1500656677.43,25754,24.56,74256.8,11.85,-23.95,-24.25,0,*4D
1500656678.69,25755,24.56,74258.3,11.81,-23.95,-24.21,0,*4C
1500656679.94,25756,24.56,74258.0,11.81,-23.85,-24.11,0,*4D
1500656681.16,25757,24.56,74258.0,11.81,-23.79,-24.15,0,*4B
1500656682.42,25758,24.56,74258.8,11.79,-24.11,-24.31,0,*4C
1500656683.66,25759,24.56,74256.0,11.79,-24.31,-24.51,0,*49
1500656684.94,25760,24.56,74256.0,11.79,-23.99,-24.11,0,*42
1500656686.22,25761,24.56,74256.8,11.79,-23.53,-23.53,0,*44
1500656687.48,25762,24.56,74256.0,11.75,-22.93,-22.31,0,*43
1500656688.77,25763,24.63,74262.8,11.79,-23.03,-22.21,0,*47
1500656690.05,25764,24.56,74256.0,11.79,-21.57,-20.99,0,*42
1500656691.31,25765,24.56,74256.0,11.79,-19.99,-19.61,0,*47
1500656692.54,25766,24.56,74256.8,11.75,-19.03,-19.17,0,*4A
1500656693.77,25767,24.56,74254.0,11.75,-20.25,-19.17,0,*45
1500656695.05,25768,24.56,74256.3,11.75,-20.99,-20.15,0,*45
1500656696.28,25769,24.56,74256.8,11.73,-21.27,-21.09,0,*4A
1500656697.54,25770,24.56,74256.3,11.75,-22.41,-22.17,0,*4B
1500656698.77,25771,24.56,74258.0,11.75,-22.11,-22.27,0,*4C
1500656700.02,25772,24.56,74256.8,11.75,-22.63,-22.73,0,*4B
1500656701.27,25773,24.56,74256.8,11.75,-23.39,-23.85,0,*4C
1500656702.48,25774,24.56,74256.8,11.73,-21.43,-22.63,0,*4B
1500656703.71,25775,24.63,74262.3,11.71,-21.77,-22.67,0,*4B
1500656704.94,25776,24.56,74256.5,11.71,-20.63,-22.41,0,*48
1500656706.2,25777,24.56,74258.3,11.71,-20.93,-23.03,0,*41
1500656707.43,25778,24.56,74258.0,11.69,-22.41,-23.85,0,*44
1500656708.66,25779,24.56,74256.8,11.69,-23.33,-24.35,0,*4D
1500656709.95,25780,24.56,74258.8,11.67,-23.33,-24.21,0,*40
1500656711.18,25781,24.56,74258.5,11.67,-23.43,-24.35,0,*43
1500656712.41,25782,24.56,74256.8,11.67,-22.27,-23.59,0,*4E
1500656713.65,25783,24.56,74256.3,11.65,-23.29,-24.11,0,*49
1500656714.88,25784,24.56,74256.3,11.65,-23.23,-23.89,0,*42
1500656716.1,25785,24.63,74260.5,11.65,-23.23,-23.79,0,*4C
1500656717.33,25786,24.56,74256.5,11.65,-23.09,-23.65,0,*4A
1500656718.54,25787,24.56,74256.0,11.65,-22.37,-22.93,0,*4F
1500656719.75,25788,24.56,74258.3,11.65,-22.27,-23.43,0,*4D
1500656720.97,25789,24.56,74258.8,11.65,-22.67,-24.11,0,*48
1500656722.19,25790,24.56,74256.5,11.63,-22.67,-24.11,0,*46
1500656723.44,25791,24.63,74258.8,11.61,-22.87,-23.95,0,*40
1500656724.69,25792,24.56,74256.3,11.63,-23.33,-24.11,0,*44
1500656725.94,25793,24.63,74256.8,11.63,-23.49,-24.11,0,*48
1500656727.21,25794,24.56,74256.0,11.61,-23.69,-24.15,0,*4B
1500656728.41,25795,24.56,74256.8,11.63,-23.59,-23.89,0,*49
1500656729.68,25796,24.56,74258.0,11.61,-23.69,-23.95,0,*46
1500656730.93,25797,24.56,74254.5,11.59,-23.95,-24.11,0,*44
1500656732.18,25798,24.63,74258.3,11.59,-23.85,-24.11,0,*4A
1500656733.43,25799,24.56,74256.5,11.57,-23.89,-23.99,0,*4E
1500656734.7,25800,24.56,74256.3,11.57,-23.85,-23.99,0,*4D
1500656735.95,25801,24.63,74258.0,11.57,-23.59,-23.85,0,*40
1500656737.18,25802,24.56,74258.5,11.57,-23.59,-23.75,0,*4C
1500656738.44,25803,24.63,74258.0,11.57,-23.59,-23.85,0,*42
1500656739.69,25804,24.56,74258.8,11.57,-23.69,-23.75,0,*49
1500656740.94,25805,24.56,74256.5,11.57,-23.53,-23.59,0,*4F
1500656742.19,25806,24.63,74260.5,11.57,-23.23,-23.39,0,*4D
1500656743.45,25807,24.56,74254.0,11.57,-23.09,-23.23,0,*4F
1500656744.72,25808,24.63,74258.0,11.57,-23.33,-23.33,0,*48
1500656746.0,25809,24.56,74258.0,11.57,-23.33,-23.33,0,*49
1500656747.26,25810,24.56,74258.3,11.57,-23.09,-23.19,0,*40
1500656748.49,25811,24.56,74254.8,11.57,-22.93,-22.93,0,*40
1500656749.72,25812,24.63,74260.5,11.57,-22.93,-22.93,0,*43
1500656750.97,25813,24.63,74256.5,11.57,-22.63,-22.73,0,*43
1500656752.2,25814,24.63,74258.0,11.57,-22.57,-22.63,0,*42
1500656753.43,25815,24.63,74258.8,11.57,-22.63,-22.63,0,*44
1500656754.68,25816,24.63,74258.3,11.57,-22.47,-22.41,0,*41
1500656755.88,25817,24.63,74256.5,11.59,-22.37,-22.37,0,*48
1500656757.11,25818,24.63,74258.8,11.57,-22.57,-22.57,0,*49
1500656758.37,25819,24.56,74258.5,11.57,-22.47,-22.37,0,*4F
1500656759.62,25820,24.63,74260.5,11.59,-22.31,-22.31,0,*4C
1500656760.83,25821,24.63,74262.5,11.59,-22.53,-22.37,0,*4F
1500656762.03,25822,24.63,74262.8,11.59,-22.53,-22.41,0,*4D
1500656763.26,25823,24.63,74260.0,11.59,-22.41,-22.31,0,*48
1500656764.47,25824,24.56,74258.5,11.59,-22.57,-22.41,0,*4F
1500656765.67,25825,24.63,74258.8,11.59,-22.67,-22.67,0,*49
1500656766.89,25826,24.63,74260.0,11.59,-22.83,-22.73,0,*45
1500656768.17,25827,24.63,74262.3,11.57,-22.77,-22.73,0,*41
1500656769.44,25828,24.63,74262.3,11.59,-22.17,-22.17,0,*44
1500656770.66,25829,24.63,74258.8,11.57,-22.11,-22.07,0,*4C
1500656771.91,25830,24.63,74260.0,11.59,-22.31,-22.21,0,*4C
1500656773.14,25831,24.63,74260.8,11.57,-22.93,-22.87,0,*47
1500656774.35,25832,24.63,74262.0,11.59,-22.97,-22.87,0,*4E
1500656775.57,25833,24.56,74254.8,11.59,-22.83,-22.73,0,*41
1500656776.78,25834,24.63,74256.5,11.59,-22.41,-22.53,0,*4A
1500656777.99,25835,24.63,74256.3,11.59,-22.53,-22.57,0,*4C
1500656779.19,25836,24.63,74260.5,11.59,-22.53,-22.67,0,*4C
1500656780.4,25837,24.63,74258.8,11.59,-22.53,-22.57,0,*4E
1500656781.63,25838,24.63,74260.0,11.59,-22.31,-22.37,0,*43
1500656782.89,25839,24.63,74260.0,11.59,-22.17,-22.31,0,*40
1500656784.15,25840,24.56,74256.3,11.59,-22.17,-22.31,0,*4E
1500656785.37,25841,24.63,74262.0,11.59,-22.07,-22.21,0,*4F
1500656786.63,25842,24.63,74260.8,11.59,-22.17,-22.31,0,*4C
1500656787.9,25843,24.63,74258.8,11.59,-22.17,-22.17,0,*49
1500656789.15,25844,24.63,74260.0,11.59,-22.17,-22.21,0,*4B
1500656790.41,25845,24.63,74260.3,11.59,-22.17,-22.21,0,*4A
1500656791.64,25846,24.56,74256.3,11.63,-22.27,-22.31,0,*42
1500656792.9,25847,24.63,74260.0,11.61,-22.21,-22.41,0,*40
1500656794.13,25848,24.63,74260.8,11.61,-22.83,-22.83,0,*49
1500656795.35,25849,24.63,74260.3,11.59,-22.83,-22.73,0,*4C
1500656796.56,25850,24.63,74258.8,11.59,-22.57,-22.57,0,*4B
1500656797.82,25851,24.63,74260.5,11.59,-22.21,-22.31,0,*4B
1500656799.04,25852,24.63,74258.8,11.59,-22.07,-22.21,0,*4D
1500656800.29,25853,24.63,74260.8,11.59,-22.21,-22.31,0,*49
1500656801.49,25854,24.63,74256.5,11.59,-22.37,-22.41,0,*4E
1500656802.75,25855,24.63,74260.5,11.59,-22.17,-22.21,0,*4B
1500656803.97,25856,24.63,74258.8,11.59,-22.21,-22.41,0,*4B
1500656805.2,25857,24.63,74260.5,11.59,-22.67,-22.73,0,*49
1500656806.4,25858,24.63,74260.5,11.59,-22.37,-22.53,0,*41
1500656807.66,25859,24.63,74262.5,11.57,-22.57,-22.73,0,*4A
1500656808.86,25860,24.63,74264.0,11.59,-22.41,-22.57,0,*4F
1500656810.08,25861,24.63,74264.3,11.57,-22.27,-22.41,0,*47
1500656811.33,25862,24.63,74262.8,11.57,-22.21,-22.37,0,*43
1500656812.56,25863,24.63,74260.5,11.59,-22.03,-22.17,0,*4E
1500656813.82,25864,24.63,74260.5,11.59,-22.17,-22.21,0,*49
1500656815.08,25865,24.63,74260.8,11.61,-22.31,-22.53,0,*42
1500656816.31,25866,24.63,74260.8,11.61,-22.37,-22.53,0,*47
1500656817.54,25867,24.63,74262.8,11.61,-22.53,-22.67,0,*43
1500656818.75,25868,24.63,74264.8,11.59,-22.37,-22.57,0,*46
1500656819.95,25869,24.63,74262.0,11.59,-22.41,-22.67,0,*45
1500656821.18,25870,24.63,74266.5,11.59,-22.31,-22.57,0,*49
1500656822.4,25871,24.63,74262.3,11.59,-22.21,-22.41,0,*4E
1500656823.63,25872,24.63,74262.5,11.57,-22.11,-22.37,0,*41
1500656824.83,25873,24.63,74266.0,11.59,-22.37,-22.57,0,*4C
1500656826.03,25874,24.63,74266.8,11.59,-22.41,-22.67,0,*49
1500656827.27,25875,24.63,74264.8,11.59,-22.97,-23.19,0,*4B
1500656828.5,25876,24.63,74264.0,11.57,-22.63,-22.93,0,*4E
1500656829.75,25877,24.63,74264.0,11.57,-22.87,-23.03,0,*4D
1500656831.0,25878,24.63,74262.8,11.59,-22.73,-23.03,0,*47
1500656832.23,25879,24.63,74260.8,11.61,-22.53,-22.83,0,*46
1500656833.44,25880,24.63,74262.0,11.59,-22.37,-22.67,0,*43
1500656834.66,25881,24.63,74264.3,11.57,-22.63,-22.93,0,*46
1500656835.92,25882,24.63,74260.3,11.57,-22.57,-22.77,0,*48
1500656837.17,25883,24.63,74262.3,11.57,-22.37,-22.73,0,*4B
1500656838.4,25884,24.63,74262.3,11.57,-22.11,-22.57,0,*4E
1500656839.63,25885,24.63,74262.5,11.59,-22.21,-22.57,0,*42
1500656840.91,25886,24.63,74264.8,11.57,-22.21,-22.47,0,*4E
1500656842.14,25887,24.63,74262.0,11.57,-22.11,-22.57,0,*4D
1500656843.37,25888,24.63,74262.5,11.57,-22.57,-22.87,0,*4D
1500656844.62,25889,24.63,74264.0,11.57,-22.87,-23.23,0,*4E
1500656845.88,25890,24.63,74264.0,11.57,-22.73,-23.09,0,*45
1500656847.13,25891,24.63,74264.3,11.57,-22.37,-22.73,0,*48
1500656848.36,25892,24.63,74266.8,11.53,-22.27,-22.67,0,*4B
1500656849.61,25893,24.63,74264.3,11.57,-22.57,-22.77,0,*48
1500656850.88,25894,24.63,74262.5,11.53,-22.77,-22.93,0,*43
1500656852.11,25895,24.63,74264.3,11.57,-22.27,-22.63,0,*4C
1500656853.33,25896,24.63,74266.3,11.57,-22.27,-22.57,0,*48
1500656854.62,25897,24.63,74260.8,11.57,-22.21,-22.47,0,*4E
1500656855.83,25898,24.63,74264.3,11.57,-22.07,-22.41,0,*43
1500656857.06,25899,24.63,74262.0,11.57,-22.63,-22.87,0,*4A
1500656858.31,25900,24.63,74262.3,11.57,-22.87,-23.19,0,*47
1500656859.57,25901,24.63,74260.8,11.57,-22.77,-23.09,0,*48
1500656860.8,25902,24.63,74264.0,11.53,-22.53,-22.83,0,*4A
1500656862.06,25903,24.63,74264.3,11.53,-22.41,-22.77,0,*43
1500656863.29,25904,24.63,74260.8,11.53,-22.41,-22.67,0,*45
1500656864.54,25905,24.63,74266.0,11.53,-22.31,-22.63,0,*47
1500656865.8,25906,24.63,74266.0,11.53,-22.31,-22.63,0,*44
1500656867.03,25907,24.63,74260.3,11.53,-22.41,-22.63,0,*42
1500656868.24,25908,24.63,74266.5,11.51,-22.41,-22.67,0,*4B
1500656869.47,25909,24.63,74264.8,11.53,-22.41,-22.67,0,*48
1500656870.72,25910,24.63,74264.8,11.53,-22.31,-22.67,0,*47
1500656871.98,25911,24.63,74262.0,11.51,-22.47,-22.77,0,*44
1500656873.21,25912,24.63,74260.0,11.53,-22.63,-22.93,0,*49
1500656874.48,25913,24.63,74264.3,11.53,-22.77,-22.93,0,*4D
1500656875.74,25914,24.63,74262.5,11.53,-22.93,-23.23,0,*4A
1500656876.98,25915,24.63,74262.3,11.51,-22.77,-22.97,0,*4D
1500656878.24,25916,24.63,74266.0,11.53,-22.47,-22.67,0,*40
1500656879.47,25917,24.63,74262.5,11.51,-22.47,-22.67,0,*43
1500656880.73,25918,24.63,74260.8,11.53,-22.53,-22.77,0,*4A
1500656881.94,25919,24.63,74262.5,11.51,-22.63,-22.93,0,*40
1500656883.18,25920,24.63,74262.0,11.53,-22.53,-22.83,0,*4A
1500656884.42,25921,24.63,74262.8,11.51,-22.53,-22.77,0,*42
1500656885.68,25922,24.63,74264.0,11.51,-22.47,-22.77,0,*44
1500656886.93,25923,24.63,74262.3,11.53,-22.41,-22.77,0,*41
1500656888.17,25924,24.63,74262.3,11.51,-22.53,-22.77,0,*47
1500656889.43,25925,24.63,74266.0,11.53,-22.41,-22.77,0,*47
1500656890.63,25926,24.63,74260.5,11.51,-22.41,-22.67,0,*47
1500656891.87,25927,24.63,74262.0,11.51,-22.53,-22.77,0,*44
1500656893.11,25928,24.63,74266.0,11.51,-22.53,-22.77,0,*4B
1500656894.33,25929,24.63,74260.5,11.49,-22.67,-22.83,0,*4F
1500656895.54,25930,24.63,74266.0,11.51,-22.41,-22.67,0,*40
1500656896.74,25931,24.63,74264.8,11.51,-22.41,-22.67,0,*41
1500656897.98,25932,24.63,74264.3,11.51,-22.31,-22.63,0,*41